Weather History for Nenana, AK

Change the Weather History Date:

Thursday, November 14, 2013

  Actual Average Record
Temperature  
Mean Temperature 34 °F -  
Max Temperature 45 °F 5 °F 57 °F (1979)
Min Temperature 21 °F -8 °F -26 °F (2006)
Degree Days  
Heating Degree Days 30    
Moisture  
Dew Point 26 °F    
Average Humidity 75    
Maximum Humidity 100    
Minimum Humidity 53    
Precipitation  
Precipitation 0.43 in - - ()
Sea Level Pressure  
Sea Level Pressure 29.84 in    
Wind  
Wind Speed 10 mph (West)    
Max Wind Speed 18 mph    
Max Gust Speed 36 mph    
Visibility 7 miles    
Events Fog , Rain , Snow    
Averages and records for this station are not official NWS values.
T = Trace of Precipitation, MM = Missing Value Source: NWS Daily Summary

Daily Weather History Graph

Daily Weather History Graph

Search for Another Location

Airport:

Trip Planner

Search our weather history database for the weather conditions in past years. The results will help you decide how hot, cold, wet, or windy it might be!

Date:

Astronomy

Nov. 14, 2013 Rise Set
Actual Time 9:27 AM AKST 3:53 PM AKST
Civil Twilight 8:25 AM AKST 4:54 PM AKST
Nautical Twilight 7:24 AM AKST 5:56 PM AKST
Astronomical Twilight 6:27 AM AKST 6:53 PM AKST
Moon 3:14 PM AKST (11/14) 5:31 AM AKST (11/14)
Length of Visible Light 8h 29m
Length of Day
6h 26m
Waxing Gibbous, 92% of the Moon is Illuminated
Nov 14
Waxing Gibbous
Nov 17
Full
Nov 25
Last Quarter
Dec 2
New
Dec 9
First Quarter

Hourly Weather History & Observations

Time (AKST) Temp. Windchill Dew Point Humidity Pressure Visibility Wind Dir Wind Speed Gust Speed Precip Events Conditions
4:53 AM 37.9 °F 28.2 °F 28.0 °F 68% 29.72 in 7.0 mi WSW 18.4 mph 33.4 mph 0.00 in Snow Light Snow
5:11 AM 35.1 °F 25.9 °F 30.0 °F 82% 29.69 in 2.0 mi WSW 13.8 mph 34.5 mph 0.00 in Snow Light Snow
5:21 AM 35.1 °F 26.9 °F 30.9 °F 85% 29.69 in 6.0 mi WSW 11.5 mph 27.6 mph 0.01 in Snow Light Snow
5:42 AM 36.0 °F 27.5 °F 30.0 °F 79% 29.69 in 9.0 mi West 12.7 mph 24.2 mph 0.01 in   Overcast
5:53 AM 37.0 °F 27.7 °F 28.0 °F 70% 29.72 in 10.0 mi WSW 16.1 mph 35.7 mph 0.01 in   Mostly Cloudy
6:53 AM 37.0 °F 27.4 °F 27.0 °F 67% 29.70 in 10.0 mi WSW 17.3 mph 28.8 mph N/A   Mostly Cloudy
7:53 AM 37.0 °F 27.7 °F 26.1 °F 65% 29.70 in 10.0 mi WSW 16.1 mph 34.5 mph N/A   Overcast
8:53 AM 37.0 °F 29.3 °F 27.0 °F 67% 29.74 in 10.0 mi WSW 11.5 mph 34.5 mph N/A   Overcast
9:53 AM 36.0 °F 28.5 °F 27.0 °F 70% 29.77 in 10.0 mi WSW 10.4 mph 21.9 mph N/A   Overcast
10:11 AM 36.0 °F 29.0 °F 27.0 °F 70% 29.74 in 10.0 mi WSW 9.2 mph 19.6 mph N/A   Overcast
10:18 AM 36.0 °F 28.0 °F 27.0 °F 70% 29.74 in 10.0 mi WSW 11.5 mph 21.9 mph N/A   Overcast
10:53 AM 36.0 °F 29.6 °F 27.0 °F 70% 29.78 in 10.0 mi WSW 8.1 mph 23.0 mph N/A   Overcast
11:36 AM 36.0 °F 29.0 °F 28.0 °F 73% 29.76 in 8.0 mi West 9.2 mph 21.9 mph 0.00 in Snow Light Snow
11:53 AM 36.0 °F 29.6 °F 28.0 °F 73% 29.79 in 6.0 mi WSW 8.1 mph 17.3 mph 0.00 in   Overcast
12:53 PM 35.1 °F 30.1 °F 28.0 °F 76% 29.80 in 2.5 mi Variable 5.8 mph 20.7 mph 0.00 in Snow Light Snow
1:13 PM 34.0 °F 28.0 °F 28.9 °F 82% 29.77 in 1.2 mi Variable 6.9 mph - 0.00 in Snow Light Snow
1:45 PM 34.0 °F 28.8 °F 28.9 °F 82% 29.77 in 2.5 mi West 5.8 mph - 0.00 in Snow Light Snow
1:53 PM 34.0 °F 27.2 °F 28.9 °F 82% 29.80 in 4.0 mi WSW 8.1 mph - 0.01 in Snow Light Snow
2:03 PM 34.0 °F 26.6 °F 28.9 °F 82% 29.77 in 7.0 mi WSW 9.2 mph - 0.00 in   Overcast
2:37 PM 34.0 °F 28.8 °F 28.9 °F 82% 29.77 in 6.0 mi Variable 5.8 mph - 0.00 in Snow Light Snow
2:53 PM 34.0 °F 28.0 °F 28.9 °F 82% 29.80 in 2.0 mi Variable 6.9 mph - 0.00 in Snow Light Snow
3:09 PM 33.1 °F 25.5 °F 30.0 °F 89% 29.77 in 1.2 mi WSW 9.2 mph - 0.00 in Snow Light Snow
3:23 PM 33.1 °F 25.5 °F 30.0 °F 89% 29.78 in 0.2 mi NW 9.2 mph - 0.01 in Fog , Snow Snow
3:37 PM 30.9 °F 20.2 °F 28.0 °F 89% 29.79 in 1.0 mi WNW 15.0 mph 23.0 mph 0.02 in Snow Light Snow
3:42 PM 30.9 °F 21.7 °F 26.1 °F 82% 29.79 in 3.0 mi WNW 11.5 mph 26.5 mph 0.02 in Snow Light Snow
3:49 PM 30.2 °F 20.2 °F 26.6 °F 86% 29.80 in 9.0 mi WNW 12.7 mph 23.0 mph 0.02 in   Overcast
3:50 PM 30.9 °F 20.7 °F 26.1 °F 82% 29.83 in 9.0 mi West 13.8 mph 23.0 mph 0.02 in   Overcast
4:53 PM 28.9 °F 18.2 °F 19.0 °F 67% 29.88 in 10.0 mi WNW 13.8 mph 21.9 mph N/A   Overcast
5:53 PM 28.0 °F 16.1 °F 15.1 °F 58% 29.93 in 10.0 mi WNW 16.1 mph 27.6 mph N/A   Overcast
6:53 PM 27.0 °F 17.3 °F 12.0 °F 53% 29.98 in 10.0 mi WNW 10.4 mph 20.7 mph N/A   Clear
7:53 PM 24.1 °F 14.4 °F 10.9 °F 57% 30.02 in 10.0 mi West 9.2 mph - N/A   Partly Cloudy
8:53 PM 25.0 °F 15.5 °F 10.9 °F 55% 30.05 in 10.0 mi West 9.2 mph 17.3 mph N/A   Mostly Cloudy
9:53 PM 24.1 °F 19.7 °F 10.9 °F 57% 30.08 in 10.0 mi Variable 3.5 mph - N/A   Overcast
10:53 PM 24.1 °F 16.0 °F 10.9 °F 57% 30.10 in 10.0 mi WNW 6.9 mph - N/A   Overcast
11:53 PM 21.9 °F 13.4 °F 10.9 °F 63% 30.12 in 10.0 mi WSW 6.9 mph - N/A   Partly Cloudy